User: anonymous   Login
Location: Stamford Observatory
(41.1241°N, 73.5498°W)
Time: 13:26:07
(UTC-05:00)
Language:

IRS-P3 - Orbit

View from above orbital plane
View from above orbital plane
View from above satellite
View from above satellite

Ground track
Ground track

The orbit data is extracted from the following two-line orbital elements,

1 23827U 96017A   15025.86918069  .00000092  00000-0  60836-4 0  2064
2 23827 098.6465 325.3951 0004140 057.1393 340.2008 14.22305339978268
Epoch (UTC): 25 January 2015 20:51:37
Eccentricity: 0.0004140
inclination: 98.6465°
perigee height: 814 km
apogee height: 820 km
right ascension of ascending node: 325.3951°
argument of perigee: 57.1393°
revolutions per day: 14.22305339
mean anomaly at epoch: 340.2008°
orbit number at epoch: 97826

The dashed part of the orbit path shows where the satellite is in the earth's shadow,  

DLR